Date String (YYYY-MM-DD hh:mm:ss) UTC,Instrument flags,Ambient pressure (hPa),Sample flow (lpm),Bypass flow (lpm),Sample temperature (°C),Ambient temperature (°C),ASC tube jacket temperature (°C),LED temperature (°C),Box temperature (°C),Sample RH (%),Span deviation,Mass concentration (μg/m³),Mass concentration (μg/m³),Mass concentration (μg/m³)
DateTimeUTC,F1_M11,P_M11,Q1_M11,Q2_M11,T1_M11,T2_M11,T3_M11,T4_M11,T5_M11,U1_M11,ZSPAN_M11,X0_M11,X2_M11,X1_M11
2021-12-17 16:00:00,,0821.5,5.01,0.00,22.9,21.8,00.0,31.8,24.4,07.2,0000.0,0003.39,0001.39,0000.81
2021-12-17 16:01:00,,0821.5,4.99,0.00,22.9,21.9,00.0,31.8,24.5,07.2,0000.0,0002.96,0001.31,0000.77
2021-12-17 16:02:00,,0821.7,5.01,0.00,22.9,21.9,00.0,31.8,24.5,07.3,0000.0,0002.36,0001.09,0000.66
2021-12-17 16:03:00,,0821.7,4.99,0.00,22.9,21.9,00.0,31.8,24.5,07.8,0000.0,0003.05,0001.02,0000.63
2021-12-17 16:04:00,,0821.6,5.00,0.00,22.8,21.9,00.0,31.8,24.4,07.3,0000.0,0003.56,0000.94,0000.58
2021-12-17 16:05:00,,0821.7,5.00,0.00,22.8,21.9,00.0,31.8,24.4,06.9,0000.0,0003.50,0000.92,0000.58
2021-12-17 16:06:00,,0821.7,5.00,0.00,22.8,21.9,00.0,31.8,24.4,06.6,0000.0,0003.41,0000.91,0000.58
2021-12-17 16:07:00,,0821.8,4.99,0.00,22.8,21.8,00.0,31.8,24.3,06.8,0000.0,0003.40,0000.91,0000.57
2021-12-17 16:08:00,,0821.8,5.01,0.00,22.8,21.8,00.0,31.8,24.3,06.5,0000.0,0003.42,0000.89,0000.56
2021-12-17 16:09:00,,0821.8,4.99,0.00,22.7,21.6,00.0,31.8,24.2,06.5,0000.0,0003.47,0000.86,0000.52
2021-12-17 16:10:00,,0821.8,4.99,0.00,22.7,21.6,00.0,31.8,24.3,06.6,0000.0,0003.51,0000.82,0000.48
2021-12-17 16:11:00,,0821.7,5.00,0.00,22.7,21.5,00.0,31.8,24.3,06.6,0000.0,0003.40,0000.78,0000.46
2021-12-17 16:12:00,,0821.7,5.01,0.00,22.7,21.5,00.0,31.8,24.2,06.7,0000.0,0003.25,0000.74,0000.45
2021-12-17 16:13:00,,0821.7,4.99,0.00,22.7,21.5,00.0,31.8,24.2,06.7,0000.0,0003.24,0000.74,0000.44
2021-12-17 16:14:00,,0821.7,4.99,0.00,22.6,21.5,00.0,31.8,24.1,06.8,0000.0,0002.53,0000.63,0000.37
2021-12-17 16:15:00,,0821.7,5.01,0.00,22.6,21.5,00.0,31.8,24.1,06.8,0000.0,0001.34,0000.46,0000.26
2021-12-17 16:16:00,,0821.6,4.99,0.00,22.6,21.5,00.0,31.7,24.1,06.9,0000.0,0001.10,0000.44,0000.26
2021-12-17 16:17:00,,0821.5,5.00,0.00,22.6,21.5,00.0,31.7,24.1,07.0,0000.0,0001.06,0000.43,0000.26
2021-12-17 16:18:00,,0821.5,5.01,0.00,22.6,21.5,00.0,31.7,24.1,07.1,0000.0,0001.07,0000.44,0000.26
2021-12-17 16:19:00,,0821.5,5.00,0.00,22.5,21.5,00.0,31.7,24.1,07.1,0000.0,0000.94,0000.44,0000.26
2021-12-17 16:20:00,,0821.6,5.01,0.00,22.5,21.4,00.0,31.7,24.0,07.0,0000.0,0000.91,0000.45,0000.26
2021-12-17 16:21:00,,0821.6,5.00,0.00,22.5,21.3,00.0,31.7,23.9,07.1,0000.0,0000.83,0000.46,0000.26
2021-12-17 16:22:00,,0821.5,5.00,0.00,22.4,21.4,00.0,31.6,24.0,07.1,0000.0,0000.87,0000.47,0000.26
2021-12-17 16:23:00,,0821.5,4.99,0.00,22.5,22.0,00.0,31.7,24.2,07.1,0000.0,0000.97,0000.53,0000.27
2021-12-17 16:24:00,,0821.5,5.00,0.00,22.6,22.9,00.0,31.7,24.6,07.0,0000.0,0001.06,0000.57,0000.27
2021-12-17 16:25:00,,0821.5,5.00,0.00,22.8,23.2,00.0,31.7,24.8,06.8,0000.0,0001.12,0000.60,0000.28
2021-12-17 16:26:00,,0821.6,4.99,0.00,22.8,23.0,00.0,31.8,24.7,06.7,0000.0,0001.17,0000.61,0000.28
2021-12-17 16:27:00,,0821.7,5.00,0.00,22.8,22.8,00.0,31.8,24.6,06.8,0000.0,0001.50,0000.65,0000.29
2021-12-17 16:28:00,,0821.7,5.01,0.00,22.8,22.5,00.0,31.8,24.5,06.9,0000.0,0002.47,0000.65,0000.29
2021-12-17 16:29:00,,0821.6,5.00,0.00,22.7,22.3,00.0,31.7,24.3,06.7,0000.0,0002.45,0000.63,0000.29
2021-12-17 16:30:00,,0821.7,5.00,0.00,22.7,22.2,00.0,31.7,24.2,06.7,0000.0,0002.45,0000.63,0000.29
2021-12-17 16:31:00,,0821.7,5.00,0.00,22.7,22.1,00.0,31.7,24.1,06.6,0000.0,0002.44,0000.62,0000.29
2021-12-17 16:32:00,,0821.8,5.00,0.00,22.6,21.9,00.0,31.7,24.1,06.7,0000.0,0002.45,0000.62,0000.29
2021-12-17 16:33:00,,0821.8,5.02,0.00,22.6,21.8,00.0,31.7,24.0,06.8,0000.0,0002.49,0000.62,0000.29
2021-12-17 16:34:00,,0821.8,5.00,0.00,22.6,21.7,00.0,31.7,24.0,06.8,0000.0,0002.44,0000.58,0000.29
2021-12-17 16:35:00,,0821.8,4.99,0.00,22.5,21.6,00.0,31.7,24.0,06.9,0000.0,0002.34,0000.54,0000.28
2021-12-17 16:36:00,,0821.8,5.01,0.00,22.5,21.5,00.0,31.7,23.9,06.9,0000.0,0002.18,0000.49,0000.27
2021-12-17 16:37:00,,0821.8,5.00,0.00,22.5,21.5,00.0,31.7,23.9,06.9,0000.0,0002.14,0000.48,0000.28
2021-12-17 16:38:00,,0821.8,4.99,0.00,22.4,21.4,00.0,31.6,23.8,06.9,0000.0,0002.03,0000.45,0000.27
2021-12-17 16:39:00,,0821.8,5.01,0.00,22.4,21.4,00.0,31.6,23.9,06.9,0000.0,0000.76,0000.41,0000.26
2021-12-17 16:40:00,,0821.8,5.00,0.00,22.4,21.4,00.0,31.6,23.8,07.0,0000.0,0000.71,0000.39,0000.26
2021-12-17 16:41:00,,0821.8,4.99,0.00,22.4,21.4,00.0,31.6,23.8,07.0,0000.0,0000.74,0000.41,0000.26
2021-12-17 16:42:00,,0821.8,4.99,0.00,22.4,21.3,00.0,31.6,23.8,06.9,0000.0,0000.68,0000.39,0000.26
2021-12-17 16:43:00,,0821.8,5.02,0.00,22.4,21.2,00.0,31.6,23.8,06.9,0000.0,0000.61,0000.36,0000.25
2021-12-17 16:44:00,,0821.8,5.00,0.00,22.3,21.2,00.0,31.5,23.8,06.9,0000.0,0000.53,0000.35,0000.26
2021-12-17 16:45:00,,0821.8,5.00,0.00,22.3,21.1,00.0,31.5,23.8,07.0,0000.0,0000.47,0000.32,0000.25
2021-12-17 16:46:00,,0821.8,4.99,0.00,22.3,21.1,00.0,31.5,23.8,06.9,0000.0,0000.48,0000.32,0000.25
2021-12-17 16:47:00,,0821.9,4.99,0.00,22.3,21.1,00.0,31.5,23.8,07.0,0000.0,0000.66,0000.33,0000.25
2021-12-17 16:48:00,,0821.9,5.00,0.00,22.3,21.1,00.0,31.5,23.8,07.0,0000.0,0000.89,0000.36,0000.25
2021-12-17 16:49:00,,0821.7,5.00,0.00,22.3,21.1,00.0,31.5,23.9,06.9,0000.0,0000.91,0000.37,0000.25
2021-12-17 16:50:00,,0821.7,4.99,0.00,22.3,21.2,00.0,31.5,23.9,06.8,0000.0,0000.91,0000.37,0000.26
2021-12-17 16:51:00,,0821.6,5.01,0.00,22.3,21.3,00.0,31.5,24.0,06.9,0000.0,0000.94,0000.38,0000.26
2021-12-17 16:52:00,,0821.7,5.00,0.00,22.4,22.1,00.0,31.5,24.2,06.8,0000.0,0000.95,0000.38,0000.25
2021-12-17 16:53:00,,0821.6,5.00,0.00,22.6,23.1,00.0,31.6,24.5,06.8,0000.0,0000.95,0000.38,0000.25
2021-12-17 16:54:00,,0821.7,5.00,0.00,22.7,23.1,00.0,31.6,24.7,06.7,0000.0,0000.99,0000.39,0000.25
2021-12-17 16:55:00,,0821.7,5.01,0.00,22.7,22.9,00.0,31.6,24.6,06.8,0000.0,0001.06,0000.41,0000.25
2021-12-17 16:56:00,,0821.6,5.00,0.00,22.7,22.7,00.0,31.6,24.5,06.8,0000.0,0001.11,0000.43,0000.25
2021-12-17 16:57:00,,0821.7,5.00,0.00,22.7,22.5,00.0,31.6,24.4,06.8,0000.0,0001.08,0000.42,0000.25
2021-12-17 16:58:00,,0821.8,5.00,0.00,22.6,22.3,00.0,31.6,24.2,06.8,0000.0,0000.88,0000.40,0000.25
2021-12-17 16:59:00,,0821.6,5.01,0.00,22.6,22.1,00.0,31.6,24.1,06.8,0000.0,0000.64,0000.37,0000.24
